This is the latest recevied weather packets stored in our database for station/object K9ABJ. If no packets are shown the sender has not sent any weather packets the latest 10 day(s).
| Time | Temp. | Humidity | Pressure | Rain* | Wind** | Luminosity | Snow |
|---|---|---|---|---|---|---|---|
| 1787927547 | 22.78° C | 76% | 1021.3 hPa | 0 mm | - | 347 W/m² | - |
| 1787927242 | 23.33° C | 77% | 1021.4 hPa | 0 mm | - | 235 W/m² | - |
| 1787926937 | 21.67° C | 80% | 1021.5 hPa | 0 mm | - | 215 W/m² | - |
| 1787926632 | 21.11° C | 81% | 1021.5 hPa | 0 mm | - | 314 W/m² | - |
| 1787926330 | 21.67° C | 82% | 1021.2 hPa | 0 mm | - | 324 W/m² | - |
| 1787926026 | 21.67° C | 79% | 1021.2 hPa | 0 mm | - | 367 W/m² | - |
| 1787925726 | 22.22° C | 81% | 1021.3 hPa | 0 mm | - | 214 W/m² | - |
| 1787925425 | 21.11° C | 82% | 1021.3 hPa | 0 mm | - | 201 W/m² | - |
| 1787925125 | 21.67° C | 82% | 1021.2 hPa | 0 mm | - | 242 W/m² | - |
| 1787924824 | 21.67° C | 81% | 1021.1 hPa | 0 mm | - | 316 W/m² | - |
| 1787924519 | 21.11° C | 84% | 1021.1 hPa | 0 mm | - | 294 W/m² | - |
| 1787924215 | 20.56° C | 84% | 1021 hPa | 0 mm | - | 269 W/m² | - |
| 1787923909 | 20° C | 86% | 1021.1 hPa | 0 mm | - | 246 W/m² | - |
| 1787923609 | 21.11° C | 85% | 1021.4 hPa | 0 mm | - | 226 W/m² | - |
| 1787923304 | 20.56° C | 86% | 1021 hPa | 0 mm | - | 192 W/m² | - |
| 1787923004 | 20° C | 86% | 1021.1 hPa | 0 mm | - | 174 W/m² | - |
| 1787922699 | 19.44° C | 88% | 1021.2 hPa | 0 mm | - | 153 W/m² | - |
| 1787922399 | 19.44° C | 87% | 1021.1 hPa | 0 mm | - | 157 W/m² | - |
| 1787922097 | 19.44° C | 88% | 1021.1 hPa | 0 mm | - | 152 W/m² | - |
| 1787921796 | 19.44° C | 88% | 1021.2 hPa | 0 mm | - | 207 W/m² | - |
| 1787921496 | 18.89° C | 88% | 1021.2 hPa | 0 mm | - | 186 W/m² | - |
| 1787921190 | 19.44° C | 87% | 1021.3 hPa | 0 mm | - | 116 W/m² | - |
| 1787920886 | 18.89° C | 88% | 1021.3 hPa | 0 mm | - | 94 W/m² | - |
| 1787920581 | 18.89° C | 89% | 1021.3 hPa | 0 mm | - | 91 W/m² | - |
| 1787920275 | 18.33° C | 90% | 1021.1 hPa | 0 mm | - | 79 W/m² | - |
* Rain latest hour (hover to see other rain measurements)
** Current wind speed in m/s (hover to see current wind gust speed)